FW1989 Weather Reports


time (UTC)temp
C
wind
direction
speed
KPH
gust
KPH
rain 1hr
cm
rain 24hr
cm
rain mn
cm
humidity
%
barometer
mb
20260505041517 16 318 29.0 46.7 0.03 0.03 0.03 76 1002.5
20260505040013 17 340 32.2 38.6 0.00 0.00 0.00 65 1001.7
20260505031533 20 205 8.0 17.7 0.00 0.00 0.00 54 1000.0
20260505030032 20 274 17.7 32.2 0.00 0.00 0.00 54 1000.0
20260505024530 20 197 12.9 22.5 0.00 0.00 0.00 53 1000.0
20260505023030 20 212 19.3 30.6 0.00 0.00 0.00 52 999.8
20260505021529 20 211 17.7 30.6 0.00 0.00 0.00 51 999.9
20260505020028 21 223 12.9 33.8 0.00 0.00 0.00 51 1000.0
20260505014528 21 209 14.5 29.0 0.00 0.00 0.00 50 999.8
20260505013027 21 208 19.3 32.2 0.00 0.00 0.00 48 999.6
20260505011528 21 208 16.1 29.0 0.00 0.00 0.00 49 999.4
20260505010026 21 200 17.7 30.6 0.00 0.00 0.00 48 999.3
20260505004526 22 192 16.1 30.6 0.00 0.00 0.00 47 999.3
20260505003025 22 219 12.9 22.5 0.00 0.00 0.00 48 999.4
20260505001524 22 187 11.3 20.9 0.00 0.00 0.00 48 999.3
20260505000026 22 236 12.9 30.6 0.00 0.00 0.00 49 999.2
20260504234522 22 218 12.9 30.6 0.00 0.00 0.00 49 999.1
20260504233021 23 220 16.1 29.0 0.00 0.00 0.00 49 999.2
20260504231520 22 209 16.1 33.8 0.00 0.00 0.00 53 999.5
20260504230017 22 217 14.5 38.6 0.00 0.00 0.00 52 999.9
20260504224517 22 235 19.3 33.8 0.00 0.00 0.00 54 1000.2
20260504223015 22 208 17.7 35.4 0.00 0.00 0.00 54 1000.5
20260504214509 22 217 17.7 32.2 0.00 0.00 0.00 53 1000.8
20260504213008 22 214 17.7 37.0 0.00 0.00 0.00 52 1000.9
20260504211502 21 207 14.5 32.2 0.00 0.00 0.00 53 1001.0
20260504210004 22 207 25.7 41.8 0.00 0.00 0.00 49 1000.9
20260504204503 23 209 20.9 32.2 0.00 0.00 0.00 47 1001.1
20260504203001 23 227 24.1 38.6 0.00 0.00 0.00 44 1000.9
20260504201632 23 241 25.7 45.1 0.00 0.00 0.00 45 1000.8
20260504193049 23 268 32.2 49.9 0.00 0.08 0.00 46 1001.3
20260504191554 23 254 14.5 40.2 0.00 0.08 0.00 49 1001.3
20260504190052 23 256 22.5 48.3 0.00 0.08 0.00 48 1001.5
20260504184557 23 267 29.0 64.4 0.00 0.23 0.00 46 1001.6
20260504183050 23 217 22.5 48.3 0.00 0.23 0.00 47 1001.5
20260504181547 23 257 20.9 46.7 0.00 0.23 0.00 48 1001.7
20260504180038 23 229 20.9 41.8 0.00 0.23 0.00 49 1001.6
20260504174535 22 218 22.5 46.7 0.00 0.23 0.00 51 1001.7
20260504173033 22 205 22.5 46.7 0.00 0.23 0.00 54 1001.8
20260504171529 22 223 19.3 43.5 0.00 0.23 0.00 53 1001.8
20260504081536 11 203 20.9 29.0 0.00 0.23 0.00 73 1005.3
20260504050005 11 212 16.1 20.9 0.00 0.23 0.00 70 1007.1
20260504044508 11 201 16.1 27.4 0.00 0.23 0.00 72 1007.2
20260504043102 11 202 19.3 25.7 0.00 0.23 0.00 75 1007.2